San Juan, PR

9:56 PM AST on July 20, 2017 (GMT -0400)
Luis Munoz Marin International

Weather History for TJSJ - March, 2013

Change the Weather History Date:

Tuesday, March 26, 2013

  Actual Average Record
Temperature  
Mean Temperature 83 °F 79 °F  
Max Temperature 92 °F 85 °F 92 °F (1984)
Min Temperature 74 °F 73 °F 66 °F (1924)
Degree Days  
Heating Degree Days 0 0  
Month to date heating degree days 0 0  
Since 1 July heating degree days 0 0  
Cooling Degree Days 18 14  
Month to date cooling degree days 383 358  
Year to date cooling degree days 1179 1109  
Growing Degree Days 32 (Base 50)    
Moisture  
Dew Point 69 °F    
Average Humidity 66    
Maximum Humidity 91    
Minimum Humidity 31    
Precipitation  
Precipitation 0.00 in 0.07 in 1.65 in (1963)
Month to date precipitation 1.26 1.59  
Year to date precipitation 5.36 7.74  
Sea Level Pressure  
Sea Level Pressure 29.99 in    
Wind  
Wind Speed 5 mph (SE)    
Max Wind Speed 15 mph    
Max Gust Speed 23 mph    
Visibility 10 miles    
Events      
T = Trace of Precipitation, MM = Missing Value Source: NWS Daily Summary

Daily Weather History Graph

Daily Weather History Graph

Search for Another Location

Airport or City:

Trip Planner

Search our weather history database for the weather conditions in past years. The results will help you decide how hot, cold, wet, or windy it might be!

Date:

Astronomy

Mar. 26, 2013 Rise Set
Actual Time 6:22 AM AST 6:36 PM AST
Civil Twilight 6:01 AM AST 6:58 PM AST
Nautical Twilight 5:35 AM AST 7:23 PM AST
Astronomical Twilight 5:10 AM AST 7:49 PM AST
Moon 6:06 PM AST (3/26) 5:34 AM AST (3/26)
Length of Visible Light 12h 57m
Length of Day
12h 13m
Waxing Gibbous, 99% of the Moon is Illuminated
Mar 26
Waxing Gibbous
Mar 27
Full
Apr 3
Last Quarter
Apr 10
New
Apr 18
First Quarter

Hourly Weather History & Observations

Time (AST) Temp. Heat Index Dew Point Humidity Pressure Visibility Wind Dir Wind Speed Gust Speed Precip Events Conditions
12:56 AM 78.1 °F - 71.1 °F 79% 29.99 in 10.0 mi Calm Calm - N/A   Partly Cloudy
1:56 AM 77.0 °F - 71.1 °F 82% 29.97 in 10.0 mi Calm Calm - N/A   Partly Cloudy
2:56 AM 75.0 °F - 71.1 °F 87% 29.97 in 10.0 mi Calm Calm - N/A   Partly Cloudy
3:50 AM 75.2 °F - 69.8 °F 83% 29.96 in 8.0 mi ENE 5.8 mph - N/A   Mostly Cloudy
3:56 AM 75.0 °F - 71.1 °F 87% 29.96 in 10.0 mi Calm Calm - N/A   Scattered Clouds
4:56 AM 75.9 °F - 71.1 °F 85% 29.96 in 10.0 mi Calm Calm - N/A   Partly Cloudy
5:56 AM 75.9 °F - 71.1 °F 85% 29.98 in 10.0 mi Calm Calm - N/A   Scattered Clouds
6:56 AM 73.9 °F - 71.1 °F 91% 30.00 in 10.0 mi Calm Calm - N/A   Scattered Clouds
7:56 AM 78.1 °F - 71.1 °F 79% 30.02 in 10.0 mi Calm Calm - N/A   Scattered Clouds
8:56 AM 82.9 °F 86.5 °F 69.1 °F 63% 30.03 in 10.0 mi Variable 3.5 mph - N/A   Scattered Clouds
9:56 AM 87.1 °F 92.0 °F 70.0 °F 57% 30.04 in 10.0 mi Variable 6.9 mph - N/A   Scattered Clouds
10:56 AM 84.0 °F 89.0 °F 71.1 °F 65% 30.03 in 10.0 mi ESE 9.2 mph - N/A   Scattered Clouds
11:56 AM 91.0 °F 93.8 °F 66.0 °F 44% 30.01 in 10.0 mi SSE 9.2 mph - N/A   Scattered Clouds
12:56 PM 91.0 °F 92.6 °F 64.0 °F 41% 29.99 in 10.0 mi SE 10.4 mph 17.3 mph N/A   Scattered Clouds
1:56 PM 91.0 °F 92.6 °F 64.0 °F 41% 29.96 in 10.0 mi ESE 11.5 mph 18.4 mph N/A   Scattered Clouds
2:56 PM 91.0 °F 91.9 °F 63.0 °F 39% 29.94 in 10.0 mi SE 8.1 mph 20.7 mph N/A   Scattered Clouds
3:56 PM 89.1 °F 90.3 °F 64.0 °F 43% 29.93 in 10.0 mi North - - N/A   Scattered Clouds
4:56 PM 88.0 °F 88.7 °F 63.0 °F 43% 29.93 in 10.0 mi SE 9.2 mph 20.7 mph N/A   Scattered Clouds
5:56 PM 84.9 °F 87.6 °F 66.9 °F 55% 29.94 in 10.0 mi SE 9.2 mph 17.3 mph N/A   Partly Cloudy
6:56 PM 82.0 °F 85.5 °F 69.1 °F 65% 29.97 in 10.0 mi SSE 9.2 mph - N/A   Partly Cloudy
7:56 PM 81.0 °F 84.1 °F 69.1 °F 67% 29.99 in 10.0 mi SSE 6.9 mph - N/A   Clear
8:56 PM 80.1 °F 83.2 °F 70.0 °F 71% 30.02 in 10.0 mi SSE 4.6 mph - N/A   Partly Cloudy
9:56 PM 79.0 °F - 71.1 °F 77% 30.03 in 10.0 mi South 5.8 mph - N/A   Clear
10:56 PM 78.1 °F - 71.1 °F 79% 30.04 in 10.0 mi South 3.5 mph - N/A   Clear
11:56 PM 78.1 °F - 71.1 °F 79% 30.03 in 10.0 mi Calm Calm - N/A   Partly Cloudy